When you browse on this site, cookies collect data to enhance your experience and personalize the content and advertising you see.
Visit our Privacy Policy to learn more. By continuing to use the site, you agree to this use of cookies and data.
  • In Austria
  • List of Countries
  • For 7 days
  • Water Temperature
  • Satellite Maps
  • Weather Map
  • News
  • Weather Widgets
  • user-avatar
    Login

    Hourly Weather Mansa

    Today, 21 November, Wednesday

    Time Temperature Precipitation Wind Pressure Humidity
    00:00 +22°C° 1.2 mm 1 mps 658 mmHg 82%
    01:00 +22°C° 1.2 mm 1 mps 658 mmHg 85%
    02:00 +21°C° 1.2 mm 1 mps 658 mmHg 88%
    03:00 +21°C° 0.7 mm 1 mps 658 mmHg 89%
    04:00 +21°C° 0.7 mm 1 mps 658 mmHg 90%
    05:00 +21°C° 0.7 mm 1 mps 658 mmHg 91%
    06:00 +22°C° 0.8 mm 1 mps 659 mmHg 86%
    07:00 +24°C° 0.8 mm 1 mps 660 mmHg 81%
    08:00 +25°C° 0.8 mm 1 mps 661 mmHg 76%
    09:00 +27°C° 1.4 mm 1 mps 661 mmHg 70%
    10:00 +28°C° 1.4 mm 1 mps 661 mmHg 64%
    11:00 +30°C° 1.4 mm 1 mps 661 mmHg 58%
    12:00 +30°C° 0.8 mm 1 mps 660 mmHg 56%
    13:00 +30°C° 0.8 mm 1 mps 660 mmHg 54%
    14:00 +30°C° 0.8 mm 2 mps 659 mmHg 53%
    15:00 +29°C° 0.6 mm 2 mps 659 mmHg 57%
    16:00 +28°C° 0.6 mm 2 mps 658 mmHg 62%
    17:00 +27°C° 0.6 mm 2 mps 658 mmHg 67%
    18:00 +26°C° 0 mm 2 mps 658 mmHg 71%
    19:00 +25°C° 0 mm 2 mps 658 mmHg 75%
    20:00 +23°C° 0 mm 2 mps 659 mmHg 79%
    21:00 +23°C° 0 mm 2 mps 659 mmHg 80%
    22:00 +21°C° 0 mm 2 mps 659 mmHg 81%
    23:00 +21°C° 0 mm 2 mps 659 mmHg 83%

    Tomorrow, 22 November, Thursday

    Time Temperature Precipitation Wind Pressure Humidity
    00:00 +21°C° 0 mm 1 mps 659 mmHg 84%
    01:00 +21°C° 0 mm 1 mps 658 mmHg 85%
    02:00 +21°C° 0 mm 1 mps 658 mmHg 86%
    03:00 +21°C° 0 mm 1 mps 658 mmHg 87%
    04:00 +20°C° 0 mm 1 mps 658 mmHg 88%
    05:00 +20°C° 0 mm 1 mps 658 mmHg 89%
    06:00 +21°C° 0 mm 1 mps 659 mmHg 84%
    07:00 +23°C° 0 mm 1 mps 660 mmHg 80%
    08:00 +24°C° 0 mm 2 mps 660 mmHg 75%
    09:00 +26°C° 0 mm 2 mps 660 mmHg 68%
    10:00 +28°C° 0 mm 2 mps 661 mmHg 61%
    11:00 +29°C° 0 mm 2 mps 661 mmHg 54%
    12:00 +30°C° 0.1 mm 1 mps 660 mmHg 52%
    13:00 +30°C° 0.1 mm 1 mps 659 mmHg 50%
    14:00 +31°C° 0.1 mm 1 mps 658 mmHg 48%
    15:00 +30°C° 0 mm 1 mps 658 mmHg 50%
    16:00 +30°C° 0 mm 1 mps 658 mmHg 52%
    17:00 +29°C° 0 mm 1 mps 658 mmHg 54%
    18:00 +28°C° 0 mm 1 mps 658 mmHg 58%
    19:00 +26°C° 0 mm 1 mps 658 mmHg 62%
    20:00 +25°C° 0 mm 1 mps 659 mmHg 66%
    21:00 +24°C° 0 mm 2 mps 659 mmHg 68%
    22:00 +24°C° 0 mm 2 mps 659 mmHg 71%
    23:00 +23°C° 0 mm 2 mps 659 mmHg 73%

    Day after tomorrow, 23 November, Friday

    Time Temperature Precipitation Wind Pressure Humidity
    00:00 +21°C° 0.2 mm 2 mps 659 mmHg 76%
    01:00 +21°C° 0.2 mm 2 mps 658 mmHg 79%
    02:00 +21°C° 0.2 mm 1 mps 658 mmHg 83%
    03:00 +21°C° 0.8 mm 1 mps 658 mmHg 85%
    04:00 +21°C° 0.8 mm 1 mps 658 mmHg 88%
    05:00 +20°C° 0.8 mm 1 mps 658 mmHg 91%
    06:00 +21°C° 0.6 mm 1 mps 659 mmHg 87%
    07:00 +23°C° 0.6 mm 1 mps 660 mmHg 84%
    08:00 +24°C° 0.6 mm 1 mps 661 mmHg 80%
    09:00 +25°C° 1.5 mm 1 mps 661 mmHg 77%
    10:00 +26°C° 1.5 mm 1 mps 661 mmHg 74%
    11:00 +27°C° 1.5 mm 1 mps 661 mmHg 71%
    12:00 +27°C° 1.4 mm 1 mps 661 mmHg 69%
    13:00 +25°C° 1.4 mm 0 mps 660 mmHg 68%
    14:00 +26°C° 1.4 mm 0 mps 659 mmHg 66%
    15:00 +24°C° 1.7 mm 0 mps 659 mmHg 72%
    16:00 +23°C° 1.7 mm 0 mps 658 mmHg 79%
    17:00 +22°C° 1.7 mm 0 mps 658 mmHg 85%
    18:00 +23°C° 1 mm 1 mps 659 mmHg 87%
    19:00 +22°C° 1 mm 1 mps 659 mmHg 89%
    20:00 +22°C° 1 mm 1 mps 659 mmHg 91%
    21:00 +21°C° 0.2 mm 1 mps 660 mmHg 91%
    22:00 +20°C° 0.2 mm 2 mps 660 mmHg 92%
    23:00 +20°C° 0.2 mm 2 mps 660 mmHg 92%

    24 November, Saturday

    Time Temperature Precipitation Wind Pressure Humidity
    00:00 +21°C° 0.1 mm 1 mps 659 mmHg 93%
    01:00 +21°C° 0.1 mm 1 mps 659 mmHg 93%
    02:00 +20°C° 0.1 mm 1 mps 658 mmHg 94%
    03:00 +20°C° 0.2 mm 1 mps 659 mmHg 94%
    04:00 +20°C° 0.2 mm 1 mps 659 mmHg 94%
    05:00 +20°C° 0.2 mm 1 mps 659 mmHg 94%
    06:00 +21°C° 0.6 mm 1 mps 660 mmHg 93%
    07:00 +21°C° 0.6 mm 1 mps 660 mmHg 92%
    08:00 +22°C° 0.6 mm 1 mps 661 mmHg 90%
    09:00 +22°C° 1 mm 1 mps 661 mmHg 89%
    10:00 +22°C° 1 mm 1 mps 661 mmHg 88%
    11:00 +23°C° 1 mm 2 mps 661 mmHg 86%
    12:00 +23°C° 0.9 mm 2 mps 660 mmHg 84%
    13:00 +24°C° 0.9 mm 2 mps 660 mmHg 83%
    14:00 +24°C° 0.9 mm 2 mps 659 mmHg 81%
    15:00 +24°C° 0.8 mm 2 mps 659 mmHg 83%
    16:00 +23°C° 0.8 mm 1 mps 659 mmHg 86%
    17:00 +23°C° 0.8 mm 1 mps 659 mmHg 88%
    18:00 +22°C° 0.4 mm 1 mps 659 mmHg 90%
    19:00 +22°C° 0.4 mm 1 mps 660 mmHg 91%
    20:00 +19°C° 0.4 mm 0 mps 660 mmHg 93%
    21:00 +19°C° 0.8 mm 0 mps 660 mmHg 94%
    22:00 +19°C° 0.8 mm 0 mps 660 mmHg 94%
    23:00 +19°C° 0.8 mm 0 mps 660 mmHg 95%

    25 November, Sunday

    Time Temperature Precipitation Wind Pressure Humidity
    00:00 +19°C° 0.3 mm 0 mps 660 mmHg 95%
    01:00 +18°C° 0.3 mm 0 mps 659 mmHg 95%
    02:00 +18°C° 0.3 mm 0 mps 659 mmHg 96%
    03:00 +18°C° 0.2 mm 0 mps 659 mmHg 96%
    04:00 +18°C° 0.2 mm 0 mps 659 mmHg 96%
    05:00 +18°C° 0.2 mm 0 mps 659 mmHg 96%
    06:00 +19°C° 0.2 mm 0 mps 660 mmHg 91%
    07:00 +22°C° 0.2 mm 1 mps 661 mmHg 87%
    08:00 +23°C° 0.2 mm 1 mps 661 mmHg 83%
    09:00 +24°C° 0.8 mm 1 mps 661 mmHg 78%
    10:00 +26°C° 0.8 mm 1 mps 661 mmHg 72%
    11:00 +27°C° 0.8 mm 1 mps 661 mmHg 67%
    12:00 +28°C° 1.3 mm 1 mps 661 mmHg 66%
    13:00 +28°C° 1.3 mm 2 mps 660 mmHg 65%
    14:00 +28°C° 1.3 mm 2 mps 659 mmHg 64%
    15:00 +27°C° 2 mm 1 mps 659 mmHg 70%
    16:00 +26°C° 2 mm 1 mps 658 mmHg 76%
    17:00 +25°C° 2 mm 1 mps 658 mmHg 82%
    18:00 +24°C° 2 mm 1 mps 658 mmHg 85%
    19:00 +23°C° 2 mm 1 mps 659 mmHg 88%
    20:00 +22°C° 2 mm 1 mps 659 mmHg 90%
    21:00 +22°C° 1.2 mm 1 mps 659 mmHg 91%
    22:00 +22°C° 1.2 mm 1 mps 660 mmHg 92%
    23:00 +21°C° 1.2 mm 1 mps 660 mmHg 93%

    26 November, Monday

    Time Temperature Precipitation Wind Pressure Humidity
    00:00 +21°C° 0.5 mm 1 mps 659 mmHg 93%
    01:00 +21°C° 0.5 mm 1 mps 659 mmHg 94%
    02:00 +21°C° 0.5 mm 1 mps 658 mmHg 94%
    03:00 +21°C° 0.3 mm 1 mps 658 mmHg 94%
    04:00 +20°C° 0.3 mm 1 mps 658 mmHg 94%
    05:00 +20°C° 0.3 mm 1 mps 658 mmHg 94%
    06:00 +21°C° 0.5 mm 1 mps 659 mmHg 91%
    07:00 +23°C° 0.5 mm 1 mps 660 mmHg 87%
    08:00 +22°C° 0.5 mm 0 mps 660 mmHg 83%
    09:00 +25°C° 1.2 mm 1 mps 660 mmHg 78%
    10:00 +27°C° 1.2 mm 1 mps 660 mmHg 73%
    11:00 +28°C° 1.2 mm 1 mps 660 mmHg 68%
    12:00 +28°C° 1.4 mm 1 mps 659 mmHg 67%
    13:00 +28°C° 1.4 mm 1 mps 658 mmHg 67%
    14:00 +28°C° 1.4 mm 2 mps 658 mmHg 66%
    15:00 +27°C° 2.5 mm 1 mps 657 mmHg 74%
    16:00 +25°C° 2.5 mm 1 mps 657 mmHg 81%
    17:00 +24°C° 2.5 mm 1 mps 657 mmHg 88%
    18:00 +23°C° 1.3 mm 1 mps 657 mmHg 89%
    19:00 +22°C° 1.3 mm 1 mps 658 mmHg 91%
    20:00 +22°C° 1.3 mm 1 mps 659 mmHg 92%
    21:00 +22°C° 0.4 mm 1 mps 659 mmHg 93%
    22:00 +21°C° 0.4 mm 1 mps 659 mmHg 94%
    23:00 +20°C° 0.4 mm 2 mps 659 mmHg 94%
    Show more